Glasgow, MT

7:56 PM MDT on July 24, 2017 (GMT -0600)
Wokal-Glasgow International

Weather History for KGGW - February, 2013

Change the Weather History Date:

Friday, February 15, 2013

  Actual Average Record
Temperature  
Mean Temperature 22 °F 19 °F  
Max Temperature 33 °F 29 °F 58 °F (1921)
Min Temperature 11 °F 9 °F -59 °F (1936)
Degree Days  
Heating Degree Days 43 46  
Month to date heating degree days 615 717  
Since 1 July heating degree days 5685 5806  
Cooling Degree Days 0 0  
Month to date cooling degree days 0 0  
Year to date cooling degree days 0 0  
Moisture  
Dew Point 18 °F    
Average Humidity 76    
Maximum Humidity 88    
Minimum Humidity 63    
Precipitation  
Precipitation 0.00 in 0.00 in 0.47 in (1953)
Month to date precipitation 0.07 0.12  
Year to date precipitation 0.63 0.49  
Snow  
Snow 0.00 in 0.10 in 5.70 in (1953)
Month to date snowfall 1.5 2.3  
Since 1 July snowfall 37.3 24.9  
Snow Depth 1.00 in    
Sea Level Pressure  
Sea Level Pressure 30.30 in    
Wind  
Wind Speed 4 mph (West)    
Max Wind Speed 10 mph    
Max Gust Speed 13 mph    
Visibility 10 miles    
Events      
T = Trace of Precipitation, MM = Missing Value Source: NWS Daily Summary

Daily Weather History Graph

Daily Weather History Graph

Search for Another Location

Airport or City:

Trip Planner

Search our weather history database for the weather conditions in past years. The results will help you decide how hot, cold, wet, or windy it might be!

Date:

Astronomy

Feb. 15, 2013 Rise Set
Actual Time 7:12 AM MST 5:29 PM MST
Civil Twilight 6:40 AM MST 6:01 PM MST
Nautical Twilight 6:04 AM MST 6:37 PM MST
Astronomical Twilight 5:28 AM MST 7:13 PM MST
Moon 9:19 AM MST (2/15) No Moon Set
Length of Visible Light 11h 20m
Length of Day
10h 16m
Waxing Crescent, 31% of the Moon is Illuminated
Feb 15
Waxing Crescent
Feb 17
First Quarter
Feb 25
Full
Mar 4
Last Quarter
Mar 11
New

Hourly Weather History & Observations

Time (MST) Temp. Windchill Dew Point Humidity Pressure Visibility Wind Dir Wind Speed Gust Speed Precip Events Conditions
12:53 AM 18.0 °F 12.7 °F 14.0 °F 84% 30.41 in 10.0 mi West 3.5 mph - N/A   Overcast
1:53 AM 18.0 °F 12.7 °F 12.9 °F 81% 30.40 in 10.0 mi WNW 3.5 mph - N/A   Overcast
2:53 AM 19.0 °F 13.9 °F 14.0 °F 81% 30.40 in 10.0 mi NNW 3.5 mph - N/A   Overcast
3:53 AM 15.1 °F 6.4 °F 10.9 °F 84% 30.42 in 10.0 mi North 5.8 mph - N/A   Overcast
4:53 AM 16.0 °F 8.8 °F 12.0 °F 84% 30.42 in 10.0 mi NNW 4.6 mph - N/A   Mostly Cloudy
5:53 AM 14.0 °F 6.5 °F 10.9 °F 88% 30.44 in 10.0 mi NW 4.6 mph - N/A   Clear
6:53 AM 12.0 °F - 9.0 °F 88% 30.45 in 10.0 mi Calm Calm - N/A   Clear
7:53 AM 15.1 °F - 10.9 °F 84% 30.45 in 10.0 mi Calm Calm - N/A   Clear
8:53 AM 18.0 °F - 14.0 °F 84% 30.44 in 10.0 mi Calm Calm - N/A   Clear
9:53 AM 18.0 °F 12.7 °F 14.0 °F 84% 30.44 in 10.0 mi SW 3.5 mph - N/A   Clear
10:53 AM 21.9 °F - 16.0 °F 78% 30.41 in 10.0 mi Calm Calm - N/A   Clear
11:53 AM 25.0 °F - 16.0 °F 69% 30.38 in 10.0 mi Calm Calm - N/A   Clear
12:53 PM 27.0 °F - 16.0 °F 63% 30.35 in 10.0 mi Calm Calm - N/A   Clear
1:53 PM 30.0 °F 25.2 °F 19.0 °F 64% 30.31 in 10.0 mi SW 4.6 mph - N/A   Overcast
2:53 PM 30.9 °F 24.3 °F 21.0 °F 67% 30.27 in 10.0 mi SE 6.9 mph - N/A   Overcast
3:53 PM 30.9 °F 23.5 °F 23.0 °F 72% 30.25 in 10.0 mi ESE 8.1 mph - N/A   Overcast
4:53 PM 30.9 °F 22.8 °F 21.9 °F 69% 30.21 in 10.0 mi ESE 9.2 mph - N/A   Overcast
5:53 PM 30.9 °F 22.2 °F 23.0 °F 72% 30.17 in 10.0 mi SE 10.4 mph - N/A   Overcast
6:53 PM 30.9 °F 24.3 °F 23.0 °F 72% 30.15 in 10.0 mi ESE 6.9 mph - N/A   Overcast
7:53 PM 32.0 °F 27.5 °F 24.1 °F 73% 30.10 in 10.0 mi SSE 4.6 mph - N/A   Overcast
8:53 PM 32.0 °F 27.5 °F 23.0 °F 69% 30.08 in 10.0 mi SW 4.6 mph - N/A   Mostly Cloudy
9:53 PM 28.0 °F 21.7 °F 23.0 °F 81% 30.07 in 10.0 mi West 5.8 mph - N/A   Clear
10:53 PM 30.9 °F 23.5 °F 25.0 °F 79% 30.07 in 10.0 mi NW 8.1 mph - N/A   Mostly Cloudy
11:53 PM 28.0 °F 24.2 °F 24.1 °F 85% 30.07 in 10.0 mi NW 3.5 mph - N/A   Overcast